Location: *
(2.5500°S, 65.9667°W)
Time: 14:40:43
(UTC+00:00)

Cosmos 2084 - Pass Details

Date: 28 May 2022
Orbit: 506 x 671 km, 62.8° (Epoch: 30 June)

Event Time Altitude Azimuth Distance (km) Brightness Sun altitude
Exits shadow 08:17:28 20° 116° (ESE) 1,286 5.5 -29.6°
Maximum altitude 08:17:29 20° 116° (ESE) 1,285 5.5 -29.6°
Drops below altitude 10° 08:20:24 10° 68° (ENE) 1,762 6.8 -28.9°
Sets 08:22:59 0° 50° (NE) 2,625 7.9 -28.3°
